• în România
  • Lista ţărilor
  • Pe 7 zile
  • Temperatura apei
  • Hartă satelitară
  • Meteo pe hartă
  • Widget-uri
  • user-avatar
    Intrare

    Meteo pe oră la Oksford

    Astăzi, 21 Septembrie, Vineri

    Timp Temperatura Precipitaţii Vânt Presiune Umiditate
    00:00 +17°C° 1.1 mm 12 m/s 741 mmHg 83%
    01:00 +14°C° 0.1 mm 11 m/s 742 mmHg 82%
    02:00 +12°C° 0.1 mm 11 m/s 743 mmHg 80%
    03:00 +9°C° 0.1 mm 10 m/s 744 mmHg 79%
    04:00 +8°C° 0 mm 9 m/s 745 mmHg 77%
    05:00 +7°C° 0 mm 8 m/s 747 mmHg 76%
    06:00 +8°C° 0 mm 7 m/s 748 mmHg 75%
    07:00 +9°C° 0 mm 8 m/s 749 mmHg 69%
    08:00 +10°C° 0 mm 9 m/s 750 mmHg 64%
    09:00 +11°C° 0 mm 9 m/s 750 mmHg 58%
    10:00 +12°C° 0 mm 10 m/s 751 mmHg 55%
    11:00 +13°C° 0 mm 11 m/s 751 mmHg 53%
    12:00 +14°C° 0 mm 11 m/s 751 mmHg 50%
    13:00 +14°C° 0.1 mm 11 m/s 752 mmHg 51%
    14:00 +14°C° 0.1 mm 11 m/s 752 mmHg 52%
    15:00 +14°C° 0.1 mm 10 m/s 753 mmHg 54%
    16:00 +13°C° 0 mm 9 m/s 753 mmHg 58%
    17:00 +12°C° 0 mm 8 m/s 754 mmHg 62%
    18:00 +11°C° 0 mm 6 m/s 754 mmHg 67%
    19:00 +11°C° 0 mm 6 m/s 755 mmHg 70%
    20:00 +10°C° 0 mm 5 m/s 756 mmHg 73%
    21:00 +10°C° 0 mm 5 m/s 756 mmHg 76%
    22:00 +9°C° 0 mm 5 m/s 757 mmHg 78%
    23:00 +10°C° 0 mm 4 m/s 757 mmHg 80%

    Mâine, 22 Septembrie, Sâmbătă

    Timp Temperatura Precipitaţii Vânt Presiune Umiditate
    00:00 +8°C° 0 mm 4 m/s 758 mmHg 82%
    01:00 +8°C° 0 mm 4 m/s 758 mmHg 82%
    02:00 +8°C° 0 mm 4 m/s 758 mmHg 82%
    03:00 +9°C° 0 mm 3 m/s 758 mmHg 82%
    04:00 +9°C° 0 mm 3 m/s 759 mmHg 83%
    05:00 +9°C° 0 mm 3 m/s 759 mmHg 83%
    06:00 +9°C° 0 mm 3 m/s 759 mmHg 83%
    07:00 +10°C° 0 mm 3 m/s 759 mmHg 78%
    08:00 +11°C° 0 mm 3 m/s 759 mmHg 72%
    09:00 +12°C° 0 mm 3 m/s 760 mmHg 67%
    10:00 +13°C° 0 mm 3 m/s 760 mmHg 65%
    11:00 +14°C° 0 mm 3 m/s 760 mmHg 62%
    12:00 +14°C° 0 mm 3 m/s 760 mmHg 60%
    13:00 +14°C° 0 mm 3 m/s 760 mmHg 61%
    14:00 +14°C° 0 mm 3 m/s 760 mmHg 62%
    15:00 +14°C° 0 mm 3 m/s 759 mmHg 63%
    16:00 +14°C° 0.6 mm 2 m/s 759 mmHg 71%
    17:00 +13°C° 0.6 mm 2 m/s 759 mmHg 80%
    18:00 +12°C° 0.6 mm 2 m/s 758 mmHg 88%
    19:00 +12°C° 0.8 mm 2 m/s 758 mmHg 89%
    20:00 +11°C° 0.8 mm 3 m/s 757 mmHg 90%
    21:00 +11°C° 0.8 mm 3 m/s 757 mmHg 92%
    22:00 +11°C° 0.9 mm 4 m/s 756 mmHg 92%
    23:00 +10°C° 0.9 mm 5 m/s 755 mmHg 92%

    Poimâine, 23 Septembrie, Duminică

    Timp Temperatura Precipitaţii Vânt Presiune Umiditate
    00:00 +10°C° 0.9 mm 5 m/s 755 mmHg 92%
    01:00 +10°C° 1.2 mm 5 m/s 754 mmHg 93%
    02:00 +10°C° 1.2 mm 5 m/s 753 mmHg 94%
    03:00 +12°C° 1.2 mm 4 m/s 752 mmHg 94%
    04:00 +12°C° 1 mm 4 m/s 752 mmHg 95%
    05:00 +13°C° 1 mm 4 m/s 751 mmHg 96%
    06:00 +13°C° 1 mm 4 m/s 751 mmHg 96%
    07:00 +14°C° 0.8 mm 4 m/s 750 mmHg 96%
    08:00 +15°C° 0.8 mm 4 m/s 750 mmHg 95%
    09:00 +16°C° 0.8 mm 5 m/s 749 mmHg 95%
    10:00 +17°C° 1 mm 6 m/s 748 mmHg 93%
    11:00 +17°C° 1 mm 7 m/s 748 mmHg 91%
    12:00 +18°C° 1 mm 9 m/s 747 mmHg 90%
    13:00 +17°C° 1.3 mm 9 m/s 746 mmHg 89%
    14:00 +17°C° 1.3 mm 9 m/s 746 mmHg 87%
    15:00 +16°C° 1.3 mm 10 m/s 745 mmHg 86%
    16:00 +13°C° 0.3 mm 11 m/s 747 mmHg 85%
    17:00 +10°C° 0.3 mm 12 m/s 748 mmHg 83%
    18:00 +7°C° 0.3 mm 13 m/s 750 mmHg 82%
    19:00 +7°C° 0.1 mm 11 m/s 752 mmHg 81%
    20:00 +7°C° 0.1 mm 10 m/s 755 mmHg 80%
    21:00 +7°C° 0.1 mm 8 m/s 758 mmHg 79%
    22:00 +6°C° 0 mm 8 m/s 759 mmHg 79%
    23:00 +6°C° 0 mm 7 m/s 761 mmHg 79%

    24 Septembrie, Luni

    Timp Temperatura Precipitaţii Vânt Presiune Umiditate
    00:00 +7°C° 0 mm 6 m/s 763 mmHg 79%
    01:00 +5°C° 0 mm 6 m/s 764 mmHg 80%
    02:00 +6°C° 0 mm 5 m/s 765 mmHg 81%
    03:00 +5°C° 0 mm 5 m/s 766 mmHg 82%
    04:00 +5°C° 0 mm 4 m/s 767 mmHg 83%
    05:00 +5°C° 0 mm 3 m/s 768 mmHg 83%
    06:00 +4°C° 0 mm 3 m/s 769 mmHg 84%
    07:00 +7°C° 0 mm 3 m/s 770 mmHg 77%
    08:00 +9°C° 0 mm 3 m/s 771 mmHg 71%
    09:00 +10°C° 0 mm 3 m/s 771 mmHg 65%
    10:00 +11°C° 0 mm 3 m/s 772 mmHg 61%
    11:00 +12°C° 0 mm 3 m/s 772 mmHg 57%
    12:00 +13°C° 0 mm 3 m/s 773 mmHg 52%
    13:00 +14°C° 0 mm 3 m/s 773 mmHg 51%
    14:00 +14°C° 0 mm 3 m/s 773 mmHg 50%
    15:00 +14°C° 0 mm 3 m/s 773 mmHg 49%
    16:00 +13°C° 0 mm 3 m/s 773 mmHg 54%
    17:00 +13°C° 0 mm 2 m/s 773 mmHg 59%
    18:00 +10°C° 0 mm 2 m/s 773 mmHg 64%
    19:00 +10°C° 0 mm 2 m/s 774 mmHg 66%
    20:00 +9°C° 0 mm 2 m/s 774 mmHg 69%
    21:00 +9°C° 0 mm 1 m/s 774 mmHg 71%
    22:00 +9°C° 0 mm 1 m/s 775 mmHg 73%
    23:00 +8°C° 0 mm 1 m/s 775 mmHg 75%

    25 Septembrie, Marţi

    Timp Temperatura Precipitaţii Vânt Presiune Umiditate
    00:00 +8°C° 0 mm 1 m/s 775 mmHg 78%
    01:00 +8°C° 0 mm 1 m/s 775 mmHg 78%
    02:00 +7°C° 0 mm 1 m/s 774 mmHg 79%
    03:00 +7°C° 0 mm 1 m/s 774 mmHg 80%
    04:00 +6°C° 0 mm 0 m/s 774 mmHg 79%
    05:00 +6°C° 0 mm 0 m/s 774 mmHg 79%
    06:00 +6°C° 0 mm 0 m/s 774 mmHg 78%
    07:00 +8°C° 0 mm 1 m/s 774 mmHg 71%
    08:00 +10°C° 0 mm 1 m/s 774 mmHg 65%
    09:00 +12°C° 0 mm 1 m/s 774 mmHg 58%
    10:00 +13°C° 0 mm 2 m/s 774 mmHg 53%
    11:00 +14°C° 0 mm 2 m/s 773 mmHg 48%
    12:00 +15°C° 0 mm 2 m/s 773 mmHg 43%
    13:00 +16°C° 0 mm 2 m/s 772 mmHg 43%
    14:00 +16°C° 0 mm 2 m/s 772 mmHg 42%
    15:00 +16°C° 0 mm 1 m/s 771 mmHg 42%
    16:00 +15°C° 0 mm 1 m/s 771 mmHg 47%
    17:00 +14°C° 0 mm 1 m/s 771 mmHg 52%
    18:00 +12°C° 0 mm 1 m/s 770 mmHg 57%
    19:00 +10°C° 0 mm 2 m/s 770 mmHg 60%
    20:00 +10°C° 0 mm 2 m/s 770 mmHg 64%
    21:00 +9°C° 0 mm 2 m/s 770 mmHg 67%
    22:00 +9°C° 0 mm 2 m/s 770 mmHg 72%
    23:00 +8°C° 0 mm 2 m/s 770 mmHg 77%

    26 Septembrie, Miercuri

    Timp Temperatura Precipitaţii Vânt Presiune Umiditate
    00:00 +8°C° 0 mm 2 m/s 769 mmHg 82%
    01:00 +8°C° 0 mm 2 m/s 769 mmHg 84%
    02:00 +7°C° 0 mm 2 m/s 769 mmHg 85%
    03:00 +7°C° 0 mm 2 m/s 768 mmHg 87%
    04:00 +7°C° 0 mm 2 m/s 768 mmHg 88%
    05:00 +7°C° 0 mm 2 m/s 768 mmHg 88%
    06:00 +7°C° 0 mm 2 m/s 768 mmHg 89%
    07:00 +9°C° 0 mm 3 m/s 767 mmHg 82%
    08:00 +11°C° 0 mm 3 m/s 767 mmHg 75%
    09:00 +13°C° 0 mm 3 m/s 767 mmHg 68%
    10:00 +14°C° 0 mm 3 m/s 767 mmHg 63%
    11:00 +17°C° 0 mm 4 m/s 766 mmHg 58%
    12:00 +18°C° 0 mm 4 m/s 766 mmHg 52%
    13:00 +18°C° 0 mm 3 m/s 765 mmHg 51%
    14:00 +19°C° 0 mm 3 m/s 765 mmHg 50%
    15:00 +19°C° 0 mm 3 m/s 764 mmHg 49%
    16:00 +18°C° 0 mm 3 m/s 764 mmHg 55%
    17:00 +16°C° 0 mm 2 m/s 764 mmHg 61%
    18:00 +14°C° 0 mm 2 m/s 763 mmHg 68%
    19:00 +13°C° 0 mm 2 m/s 763 mmHg 72%
    20:00 +13°C° 0 mm 2 m/s 763 mmHg 75%
    21:00 +12°C° 0 mm 2 m/s 763 mmHg 79%
    22:00 +10°C° 0 mm 2 m/s 763 mmHg 81%
    23:00 +10°C° 0 mm 2 m/s 763 mmHg 83%
    Arată mai mult